Calgary Springbank,

4:37 AM MDT on April 26, 2017 (GMT -0600)
Calgary Springbank

Weather History for CYBW - October, 2011

Change the Weather History Date:

Saturday, October 22, 2011

  Actual Average Record
Temperature  
Mean Temperature 40 °F -  
Max Temperature 52 °F 38 °F 71 °F (1998)
Min Temperature 28 °F 17 °F 17 °F (2000)
Degree Days  
Heating Degree Days 25    
Moisture  
Dew Point 27 °F    
Average Humidity 55    
Maximum Humidity 87    
Minimum Humidity 31    
Precipitation  
Precipitation 0.00 in - - ()
Sea Level Pressure  
Sea Level Pressure 29.95 in    
Wind  
Wind Speed 9 mph ()    
Max Wind Speed 18 mph    
Max Gust Speed 29 mph    
Visibility 15.6 miles    
Events      
Averages and records for this station are not official NWS values.
T = Trace of Precipitation, MM = Missing Value Source: Averaged Metar Reports

Daily Weather History Graph

Daily Weather History Graph

Search for Another Location

Airport or City:

Trip Planner

Search our weather history database for the weather conditions in past years. The results will help you decide how hot, cold, wet, or windy it might be!

Date:

Astronomy

Oct. 22, 2011 Rise Set
Actual Time 8:12 AM MDT 6:30 PM MDT
Civil Twilight 7:38 AM MDT 7:04 PM MDT
Nautical Twilight 7:00 AM MDT 7:42 PM MDT
Astronomical Twilight 6:21 AM MDT 8:21 PM MDT
Moon 2:43 AM MDT (10/22) 4:16 PM MDT (10/22)
Length of Visible Light 11h 25m
Length of Day
10h 18m
Waning Crescent, 23% of the Moon is Illuminated
Oct 22
Waning Crescent
Oct 26
New
Nov 2
First Quarter
Nov 10
Full
Nov 18
Last Quarter

Hourly Weather History & Observations

Time (MDT) Temp. Windchill Dew Point Humidity Pressure Visibility Wind Dir Wind Speed Gust Speed Precip Events Conditions
5:00 AM 39.2 °F 32.0 °F 23.0 °F 52% 29.96 in 15.0 mi West 11.5 mph - N/A   Clear
5:21 AM - - - N/A% - 15.0 mi North 17.3 mph 23.0 mph N/A   Clear
6:00 AM 38 °F - 30 °F 62% 30.01 in 15 mi NNE 16.1 mph - -   Scattered Clouds
7:00 AM 35.6 °F - 28.4 °F 75% 30.01 in 15.0 mi ENE 2.3 mph - N/A   Clear
8:00 AM 32.0 °F 25.6 °F 28.4 °F 87% 30.02 in 30.0 mi SSW 6.9 mph - N/A   Partly Cloudy
9:00 AM 30.2 °F 22.6 °F 26.6 °F 86% 30.04 in 30.0 mi SW 8.1 mph - N/A   Mostly Cloudy
10:00 AM 37.4 °F 33.8 °F 30.2 °F 75% 30.03 in 30.0 mi SSE 4.6 mph - N/A   Mostly Cloudy
11:00 AM 39.2 °F 33.6 °F 30.2 °F 70% 30.02 in 30.0 mi SSE 8.1 mph - N/A   Mostly Cloudy
12:00 PM 46 °F - 32 °F 46% 29.95 in 28 mi SSE 6.9 mph - -   Scattered Clouds
12:00 PM 46.4 °F 43.5 °F 32.0 °F 57% 29.95 in 30.0 mi SSE 5.8 mph - N/A   Mostly Cloudy
12:18 PM - - - N/A% - 30.0 mi West 12.7 mph - N/A   Mostly Cloudy
1:00 PM 50.0 °F - 24.8 °F 37% 29.95 in 30.0 mi West 13.8 mph 20.7 mph N/A   Mostly Cloudy
2:00 PM 51.8 °F - 26.6 °F 38% 29.92 in 30.0 mi West 16.1 mph - N/A   Mostly Cloudy
3:00 PM 51.8 °F - 28.4 °F 41% 29.91 in 30.0 mi West 18.4 mph - N/A   Mostly Cloudy
4:00 PM 50.0 °F - 28.4 °F 43% 29.91 in 30.0 mi West 10.4 mph - N/A   Partly Cloudy
5:00 PM 50.0 °F - 28.4 °F 43% 29.90 in 30.0 mi WNW 18.4 mph 28.8 mph N/A   Partly Cloudy
6:00 PM 47 °F - 26 °F 31% 29.91 in 28 mi WNW 15.0 mph - -   Scattered Clouds
6:00 PM 48.2 °F - 26.6 °F 43% 29.91 in 30.0 mi WNW 12.7 mph 20.7 mph N/A   Partly Cloudy
7:00 PM 41.0 °F 35.8 °F 24.8 °F 53% 29.91 in 20.0 mi NW 8.1 mph - N/A   Partly Cloudy
8:00 PM 42.8 °F 36.6 °F 24.8 °F 49% 29.91 in 15.0 mi West 11.5 mph - N/A   Partly Cloudy
9:00 PM 41.0 °F 39.0 °F 23.0 °F 49% 29.94 in 15.0 mi NW 3.5 mph - N/A   Clear
10:00 PM 37.4 °F - 23.0 °F 56% 29.93 in 15.0 mi SSW 2.3 mph - N/A   Mostly Cloudy